Theta_e
295 290 288 291 292 292 291 289 288 291 294 292 291 291 294 294 293 292 291 292 292 292 292 294 296 299 300 301 302 301 301 300 301 300 298 295 293 292 292 291 291 292 292 292
292 289 295 296 295 294 292 289 289 292 293 292 291 291 294 294 294 295 294 294 293 290 290 292 294 297 299 300 302 302 302 302 303 300 297 294 291 289 288 288 288 289 290 290
290 294 298 296 294 293 291 289 288 290 291 290 288 287 290 294 295 295 296 296 294 291 290 291 293 295 297 298 302 303 303 300 297 294 292 290 289 287 286 286 286 287 288 288
292 297 295 294 293 293 288 293 293 292 288 284 288 283 289 292 293 293 295 293 293 290 291 292 293 293 294 295 298 299 297 295 294 293 290 289 287 285 284 284 285 285 286 286
291 293 292 293 293 295 291 293 291 290 287 285 285 283 287 293 293 296 295 294 293 291 291 291 293 294 292 291 291 294 294 292 291 291 291 288 285 285 285 284 284 284 284 285
292 294 294 294 292 294 294 292 291 289 287 280 286 286 285 291 294 297 295 292 291 290 290 291 291 290 289 288 288 288 289 289 290 289 287 286 285 284 283 283 282 283 283 283
290 290 292 294 291 293 292 288 281 279 278 280 287 284 290 293 295 296 295 291 290 290 289 289 288 288 287 286 286 286 287 286 287 287 286 285 285 284 283 283 283 282 282 281
287 284 291 293 292 290 288 289 282 277 277 279 283 281 288 295 296 292 295 294 291 289 289 288 287 287 286 286 285 285 286 285 285 286 285 285 285 285 284 284 283 282 281 281
287 286 292 293 296 295 288 286 293 285 273 276 283 286 291 290 290 290 291 292 290 289 288 286 286 286 286 285 285 285 285 284 285 285 285 285 284 284 284 283 282 282 281 282
293 287 290 289 295 292 291 292 284 283 274 273 280 283 287 287 290 289 289 290 289 288 286 286 285 285 286 286 284 284 285 285 284 284 285 284 283 284 283 283 281 281 280 280
294 292 285 288 287 288 288 286 287 288 283 278 277 283 290 292 292 289 290 290 290 288 287 286 286 285 285 285 284 284 284 283 283 284 283 283 283 283 282 282 281 280 280 279
295 292 281 285 289 290 289 289 288 284 281 281 280 287 290 290 290 291 290 291 291 290 288 287 286 285 285 284 283 283 284 283 283 283 283 282 282 282 281 281 280 279 279 279
296 290 283 283 286 287 287 289 292 289 282 284 279 286 289 289 290 290 289 289 290 289 287 286 286 285 284 284 284 284 283 283 283 283 282 281 281 281 280 280 279 279 278 278
299 291 289 286 288 288 285 287 289 290 284 284 286 289 287 287 290 289 289 289 289 290 288 287 286 285 285 284 284 283 283 283 283 282 282 281 280 280 280 279 279 278 278 277
297 288 289 292 291 289 287 286 288 287 289 286 289 289 293 294 290 291 290 289 288 288 288 287 287 286 285 284 284 284 283 283 283 282 282 281 281 280 279 279 279 278 278 277
294 288 290 288 291 290 288 288 288 289 290 290 291 290 294 295 293 290 291 290 289 289 289 289 288 287 285 285 284 284 284 283 283 282 282 282 281 281 280 280 279 278 277 277
290 289 286 285 289 287 284 289 291 290 290 290 286 292 293 294 294 290 290 291 291 291 290 289 288 287 286 285 285 284 284 284 283 282 282 282 282 281 280 280 279 277 277 275
287 289 287 285 286 279 288 293 295 293 294 293 291 293 290 293 295 292 291 291 291 291 290 290 290 289 287 286 285 286 284 283 283 282 282 282 282 281 279 278 278 277 276 274
295 289 285 283 284 286 288 284 288 289 290 296 295 296 296 289 287 288 290 291 293 291 292 292 291 290 289 286 285 285 283 283 282 282 281 281 282 281 279 278 277 276 275 273
292 295 288 283 282 280 284 283 285 291 286 292 295 295 295 289 287 293 289 289 290 292 291 291 290 289 289 288 286 284 283 281 281 282 282 282 282 281 279 279 276 273 274 274
285 287 284 285 284 284 282 280 285 284 284 279 282 290 287 289 294 291 289 289 288 288 288 288 289 290 289 286 285 283 281 281 282 281 281 280 280 280 279 277 274 271 272 272
283 283 282 284 282 281 285 283 285 284 281 282 284 284 286 284 283 284 285 284 284 285 285 284 285 284 282 283 284 281 281 281 279 278 278 277 277 277 275 274 269 270 271 271
282 284 282 285 284 285 283 285 284 283 282 284 285 284 283 282 281 281 281 281 283 283 282 282 283 281 280 278 282 280 278 277 276 275 274 273 271 273 272 271 270 269 270 270
281 283 283 283 283 280 281 283 283 282 281 282 285 283 282 281 280 280 279 279 279 279 279 276 278 277 275 273 275 274 275 274 273 272 269 269 271 269 268 272 271 270 269 268
282 283 281 280 279 281 284 283 285 285 282 282 282 282 282 280 279 279 279 278 278 278 276 276 276 274 274 272 270 269 271 272 271 270 269 269 268 268 267 267 266 268 265 268
280 281 281 281 283 285 285 286 286 285 284 281 281 280 280 280 279 279 278 278 278 277 273 273 271 272 269 270 268 268 270 272 272 270 269 268 267 265 266 265 264 273 273 275
Wind_Speed
2 4 8 13 10 6 3 3 4 5 4 5 9 9 10 11 7 9 10 11 13 13 9 8 7 8 8 7 9 9 9 8 7 7 6 6 6 7 7 7 8 9 8 9
3 8 10 7 7 8 7 7 9 5 4 5 6 11 9 7 13 15 18 16 15 8 9 8 8 7 8 8 10 10 10 10 5 5 6 5 5 6 7 6 8 8 8 8
9 8 6 8 5 6 6 6 5 8 1 3 4 7 8 9 11 10 15 13 11 18 16 11 9 8 8 9 11 13 11 8 8 11 10 9 8 5 6 5 6 6 8 8
9 10 4 6 7 8 7 6 6 6 1 6 4 10 7 6 10 9 20 14 17 16 11 13 13 9 9 7 7 10 10 10 10 12 11 13 8 9 3 5 5 6 7 8
10 9 9 14 10 9 8 2 3 3 4 1 4 6 7 8 12 17 17 16 15 18 18 17 16 12 7 7 7 7 9 8 9 9 9 9 10 9 7 6 9 8 7 7
5 2 6 8 2 5 7 5 6 5 3 4 11 10 6 10 13 13 8 11 16 17 15 14 12 11 8 6 7 7 9 7 8 9 9 13 16 13 10 8 8 6 5 5
2 5 3 5 6 5 5 7 2 4 1 10 6 9 16 8 8 9 11 12 15 17 16 16 17 15 12 10 8 7 8 8 9 12 11 11 13 12 13 11 9 10 6 4
12 8 14 8 10 10 8 10 8 9 6 6 1 10 9 12 10 6 8 15 15 16 15 17 17 15 13 12 10 9 10 8 9 11 11 10 10 8 8 8 8 6 6 6
9 8 3 2 6 13 6 9 4 2 2 2 7 8 8 6 8 3 6 13 17 18 17 17 14 14 14 12 13 13 11 9 10 11 9 9 8 9 9 9 7 6 6 6
6 2 3 2 5 2 8 6 3 1 3 8 6 8 11 5 14 7 8 9 9 12 14 15 15 14 12 12 9 10 10 12 11 10 10 10 10 9 9 9 9 8 6 6
6 4 0 5 7 14 6 5 4 5 6 6 6 10 7 11 12 13 13 15 16 16 15 15 13 13 12 11 11 12 11 11 11 10 7 10 9 9 9 9 8 8 7 7
13 4 5 9 4 5 2 7 7 8 8 6 2 22 6 3 3 8 11 14 13 15 15 14 13 14 14 14 12 13 12 12 11 10 9 9 9 9 9 9 9 8 8 6
12 6 2 5 4 3 7 8 17 1 4 13 6 17 4 1 2 6 9 9 11 13 12 13 14 16 16 15 14 14 13 13 11 11 11 9 10 10 9 9 9 8 8 8
13 6 16 21 7 9 9 13 14 18 11 8 27 25 3 3 6 6 8 9 12 14 15 15 15 16 15 15 15 13 13 12 12 12 12 12 12 11 10 9 9 9 8 8
14 13 10 19 4 6 7 14 20 24 31 16 27 27 18 14 13 11 7 8 11 15 17 19 19 17 16 15 14 13 13 13 12 12 12 12 10 8 8 9 8 7 7 7
6 12 12 19 15 10 7 13 24 26 25 27 28 36 7 8 5 8 13 16 17 17 19 18 15 15 16 16 16 14 14 14 13 13 12 10 10 10 10 10 9 9 8 7
12 11 8 21 11 7 8 39 21 19 21 22 27 38 9 17 16 10 11 15 19 19 20 19 17 15 15 16 15 16 14 12 13 12 10 11 11 12 11 10 10 10 10 6
4 13 6 13 7 14 16 6 26 29 29 23 25 28 9 14 16 13 10 17 18 17 16 17 16 14 13 13 14 13 13 15 15 12 11 11 13 12 9 11 11 9 7 9
18 13 6 8 13 9 18 6 10 16 30 27 29 29 25 7 1 6 9 8 12 11 13 13 13 14 14 16 15 15 13 13 13 14 13 13 12 12 12 12 12 9 8 6
17 21 16 7 9 14 7 0 1 6 24 16 22 27 23 10 10 20 8 9 10 13 11 11 11 10 15 14 15 15 14 13 14 13 14 12 13 13 14 13 11 5 5 8
10 12 20 18 12 5 5 5 2 10 8 3 0 8 8 11 12 4 10 6 5 5 8 8 11 13 10 11 13 14 12 14 13 8 9 10 11 12 11 9 6 6 6 5
10 9 7 9 7 11 6 2 9 4 4 2 2 2 5 4 3 5 7 8 9 9 7 7 10 8 7 11 12 10 12 8 8 9 9 9 9 7 7 9 5 5 7 8
5 5 6 8 6 5 7 5 3 3 3 2 0 1 5 6 2 5 6 7 8 9 8 6 11 10 6 6 8 10 6 8 8 8 7 7 6 6 7 8 8 5 6 7
3 2 2 2 3 2 2 3 3 3 2 2 2 3 5 5 6 6 6 7 7 5 7 4 9 8 5 3 4 4 6 6 7 6 5 5 7 6 5 4 6 6 7 6
3 7 6 4 3 3 6 6 3 3 4 5 3 1 4 7 5 6 6 6 6 6 5 5 8 7 6 4 4 3 5 7 6 6 5 5 4 5 4 2 4 3 1 5
5 7 6 6 7 4 3 9 8 5 3 5 5 3 2 4 6 5 6 5 6 7 4 5 4 7 4 5 4 3 4 7 8 6 5 5 5 4 4 4 1 5 7 10
Wind_Direction
210 119 203 201 196 205 224 214 243 261 230 143 216 250 239 217 218 214 212 200 196 188 165 162 163 152 143 144 136 140 136 138 134 124 113 96 100 91 76 65 56 62 67 67
72 230 226 205 210 224 247 260 268 284 205 163 258 248 253 198 221 210 207 209 197 155 164 162 163 165 166 159 152 149 151 155 156 121 112 112 109 88 93 85 69 60 68 70
174 215 194 190 228 195 226 203 232 225 244 267 286 270 248 242 224 214 227 216 191 175 166 164 170 176 174 167 160 157 161 143 124 119 113 108 100 85 88 67 74 57 74 73
223 228 185 166 217 174 238 210 217 241 148 244 150 284 251 242 243 214 229 198 189 173 163 164 171 174 176 182 144 135 135 135 136 137 134 138 134 130 113 118 108 87 71 77
230 180 188 220 212 167 227 157 189 212 195 337 282 290 262 216 248 248 239 211 187 175 167 170 172 166 163 158 148 138 138 136 141 138 139 129 119 119 126 119 109 95 82 78
209 167 159 195 85 161 153 77 40 39 69 260 223 216 196 236 231 257 237 194 171 169 168 161 151 141 149 155 149 145 139 148 145 137 136 140 141 142 138 136 123 117 105 95
179 202 173 140 97 20 119 101 311 322 310 243 217 233 246 248 247 227 224 186 172 165 160 158 157 162 160 164 164 156 151 146 142 143 141 146 147 146 144 143 139 134 127 120
193 246 171 193 183 169 190 161 166 218 215 260 54 240 251 225 250 280 235 184 163 165 167 166 164 163 163 167 169 162 159 149 144 143 149 148 145 146 143 145 143 136 136 135
177 249 105 152 155 152 202 209 183 16 56 350 223 277 300 244 273 292 185 167 177 170 168 166 163 165 167 172 175 168 158 152 153 150 145 144 139 144 148 141 132 135 126 131
204 203 19 353 85 34 153 164 86 52 218 252 260 252 235 213 239 217 211 183 177 172 165 169 170 170 172 175 168 164 162 160 153 145 149 150 149 145 140 133 137 141 140 132
188 155 289 131 207 173 156 185 189 144 165 210 277 255 204 216 220 206 206 193 182 179 174 174 174 169 166 167 173 169 162 154 154 153 144 145 148 141 135 138 144 149 137 144
200 128 165 204 269 258 216 179 164 172 217 237 200 259 177 130 264 193 203 196 188 181 175 175 169 164 170 177 173 173 168 163 164 158 150 149 145 144 147 153 154 148 147 152
172 207 100 318 348 326 204 214 215 252 62 224 190 264 356 64 198 207 190 185 180 173 169 169 172 177 180 180 180 176 174 169 163 158 155 154 157 157 163 161 156 153 149 157
156 171 204 231 228 151 196 197 205 204 227 210 235 259 166 198 228 208 209 184 177 180 177 177 183 187 184 182 179 177 177 171 166 162 163 167 169 168 167 160 163 161 161 158
168 211 199 237 191 158 178 198 203 207 225 208 252 242 236 232 217 213 186 165 178 187 189 191 189 187 181 179 179 179 176 171 170 168 174 179 169 160 157 164 169 159 161 173
181 229 207 244 234 219 214 212 216 219 232 237 251 260 127 231 223 180 195 185 192 198 200 197 189 184 185 181 182 177 177 175 170 180 181 170 167 168 174 171 169 168 170 174
171 194 172 243 203 224 261 236 218 223 229 224 234 244 195 243 241 218 210 197 201 198 194 189 186 180 183 186 177 182 175 164 175 179 173 174 173 178 183 172 173 179 181 169
167 199 196 249 134 215 248 205 218 228 237 225 246 255 207 234 236 230 199 193 201 198 186 181 178 175 170 164 169 167 167 173 182 181 176 177 179 184 169 174 184 180 172 187
196 194 216 230 223 263 277 183 164 187 245 229 236 248 249 196 93 257 209 207 203 182 176 174 170 164 159 165 167 168 171 176 180 183 182 182 183 176 178 188 187 187 178 181
204 213 208 185 231 235 283 278 226 112 255 171 211 237 234 143 224 249 166 155 155 161 160 161 161 155 162 170 162 163 173 173 182 183 188 177 180 184 185 190 185 173 181 194
196 210 220 224 233 253 228 234 265 161 249 307 262 247 147 203 233 168 144 114 111 122 140 135 152 159 155 139 151 165 164 185 188 162 158 169 176 183 187 177 162 166 176 167
186 182 196 217 239 242 180 32 171 224 335 282 322 180 148 132 64 106 112 123 124 121 119 124 124 126 132 145 147 149 178 171 141 145 160 172 174 174 162 171 163 163 170 193
207 191 177 191 207 185 187 179 195 144 198 290 219 35 130 117 123 118 122 128 132 137 129 116 131 128 114 121 139 161 175 145 147 152 170 169 149 160 160 165 172 163 178 194
225 199 163 123 209 224 234 272 251 152 124 39 57 108 141 131 148 125 129 135 129 122 123 106 111 116 130 137 116 109 145 137 140 151 145 144 165 160 156 157 167 177 185 195
177 140 173 273 244 317 247 226 245 154 90 62 22 148 153 141 151 148 134 127 116 113 103 123 135 141 159 130 125 134 135 136 139 132 139 141 133 160 146 120 163 167 162 171
195 173 180 213 176 149 204 195 190 184 182 168 142 97 87 147 148 119 131 137 139 140 124 109 99 116 139 132 130 147 145 148 144 147 158 165 157 153 149 145 89 227 205 218